Fort Nelson, British Columbia

10:00 AM PDT on April 25, 2017 (GMT -0700)
Fort Nelson

Weather History for CYYE - August, 2013

Change the Weather History Date:

Friday, August 2, 2013

  Actual Average Record
Temperature  
Mean Temperature 63 °F -  
Max Temperature 70 °F 69 °F 84 °F (1999)
Min Temperature 56 °F 46 °F 39 °F (2002)
Degree Days  
Heating Degree Days 2    
Growing Degree Days 13 (Base 50)    
Moisture  
Dew Point 58 °F    
Average Humidity 82    
Maximum Humidity 96    
Minimum Humidity 60    
Precipitation  
Precipitation 0.04 in 0.08 in - ()
Sea Level Pressure  
Sea Level Pressure 30.03 in    
Wind  
Wind Speed 4 mph ()    
Max Wind Speed 9 mph    
Max Gust Speed -    
Visibility 16.9 miles    
Events Fog , Rain , Thunderstorm    
Averages and records for this station are not official NWS values.
T = Trace of Precipitation, MM = Missing Value Source: Averaged Metar Reports

Daily Weather History Graph

Daily Weather History Graph

Search for Another Location

Airport or City:

Trip Planner

Search our weather history database for the weather conditions in past years. The results will help you decide how hot, cold, wet, or windy it might be!

Date:

Astronomy

Aug. 02, 2013 Rise Set
Actual Time 5:01 AM PDT 9:29 PM PDT
Civil Twilight 4:06 AM PDT 10:24 PM PDT
Nautical Twilight 2:30 AM PDT 11:56 PM PDT
Astronomical Twilight Sun does not set Sun does not set
Moon 1:16 AM PDT (8/2) 6:42 PM PDT (8/2)
Length of Visible Light 18h 18m
Length of Day
16h 28m
Waning Crescent, 15% of the Moon is Illuminated
Aug 2
Waning Crescent
Aug 6
New
Aug 14
First Quarter
Aug 20
Full
Aug 28
Last Quarter

Hourly Weather History & Observations

Time (PDT) Temp. Dew Point Humidity Pressure Visibility Wind Dir Wind Speed Gust Speed Precip Events Conditions
12:00 AM 68.0 °F 57.2 °F 68% 29.95 in 15.0 mi Variable 2.3 mph - N/A Thunderstorm Thunderstorm
1:00 AM 62.6 °F 57.2 °F 82% 29.97 in 15.0 mi NNW 8.1 mph - N/A Thunderstorm Thunderstorm
2:00 AM 62.6 °F 59.0 °F 88% 30.00 in 15.0 mi NNW 6.9 mph - N/A Thunderstorm Thunderstorm
3:00 AM 60.8 °F 57.2 °F 88% 29.99 in 15.0 mi WSW 5.8 mph - N/A Thunderstorm Thunderstorm
4:00 AM 60.8 °F 59.0 °F 94% 29.98 in 15.0 mi North 4.6 mph - N/A Rain , Thunderstorm Light Thunderstorms and Rain
4:37 AM 59.0 °F 57.2 °F 94% 29.99 in 20.0 mi West 9.2 mph - N/A   Mostly Cloudy
5:00 AM 58 °F 57 °F 96% 30.01 in 28 mi East 2.3 mph - -   Partly Cloudy
5:00 AM 59.0 °F 57.2 °F 94% 30.01 in 30.0 mi Calm Calm - N/A   Scattered Clouds
6:00 AM 57.2 °F 55.4 °F 94% 30.03 in 30.0 mi NW 2.3 mph - N/A Fog Shallow Fog
7:00 AM 59.0 °F 57.2 °F 94% 30.04 in 30.0 mi North 4.6 mph - N/A   Scattered Clouds
8:00 AM 60.8 °F 57.2 °F 88% 30.05 in 30.0 mi North 2.3 mph - N/A   Mostly Cloudy
9:00 AM 62.6 °F 57.2 °F 82% 30.04 in 30.0 mi North 3.5 mph - N/A   Overcast
10:00 AM 62.6 °F 59.0 °F 88% 30.05 in 30.0 mi ESE 4.6 mph - N/A   Overcast
11:00 AM 64 °F 59 °F 77% 30.05 in 28 mi ENE 3.5 mph - -   Mostly Cloudy
11:00 AM 64.4 °F 59.0 °F 83% 30.05 in 30.0 mi East 3.5 mph - N/A   Mostly Cloudy
12:00 PM 68.0 °F 59.0 °F 73% 30.05 in 30.0 mi ENE 5.8 mph - N/A   Mostly Cloudy
1:00 PM 68.0 °F 59.0 °F 73% 30.05 in 30.0 mi NNE 6.9 mph - N/A   Mostly Cloudy
2:00 PM 69.8 °F 59.0 °F 68% 30.05 in 30.0 mi NE 8.1 mph - N/A   Mostly Cloudy
3:00 PM 69.8 °F 57.2 °F 64% 30.04 in 25.0 mi East 3.5 mph - N/A   Scattered Clouds
4:00 PM 69.8 °F 55.4 °F 60% 30.04 in 20.0 mi NNE 5.8 mph - N/A   Mostly Cloudy
5:00 PM 69.8 °F 57.2 °F 64% 30.04 in 20.0 mi North 3.5 mph - N/A   Mostly Cloudy
5:26 PM 69.8 °F 57.2 °F 64% 30.04 in 20.0 mi NW 2.3 mph - N/A Thunderstorm Thunderstorm
6:00 PM 68.0 °F 60.8 °F 78% 30.06 in 15.0 mi SSW 4.6 mph - N/A Rain Light Rain Showers
7:00 PM 66.2 °F 60.8 °F 83% 30.05 in 20.0 mi West 3.5 mph - N/A   Mostly Cloudy
8:00 PM 66.2 °F 60.8 °F 83% 30.04 in 20.0 mi NW 3.5 mph - N/A   Mostly Cloudy
9:00 PM 66.2 °F 60.8 °F 83% 30.06 in 15.0 mi ENE 3.5 mph - N/A   Mostly Cloudy
10:00 PM 62.6 °F 60.8 °F 94% 30.07 in 15.0 mi Calm Calm - N/A   Mostly Cloudy
11:00 PM 62 °F 60 °F 92% 30.06 in 15 mi West 5.8 mph - -   Partly Cloudy
11:00 PM 62.6 °F 60.8 °F 94% 30.06 in 15.0 mi West 5.8 mph - N/A   Mostly Cloudy